CW5039 Weather Reports


Display with metric or nautical units.
time (UTC)temp
F
wind
direction
speed
MPH
gust
MPH
rain 1hr
in
rain 24hr
in
rain mn
in
humidity
%
barometer
mb
20260508035906 67 2 18.0 29.0 0.00 0.00 0.00 80 1011.5
20260508035404 67 353 18.0 24.0 0.00 0.00 0.00 80 1011.5
20260508031905 67 13 17.0 26.0 0.00 0.00 0.00 80 1011.5
20260508031405 67 13 17.0 25.0 0.00 0.00 0.00 80 1011.6
20260508030905 67 16 14.0 20.0 0.00 0.00 0.00 79 1011.6
20260508025905 67 7 11.0 20.0 0.00 0.00 0.00 79 1011.8
20260508025404 67 18 10.0 15.0 0.00 0.00 0.00 80 1011.8
20260508022905 66 35 14.0 20.0 0.00 0.00 0.00 80 1011.7
20260508020906 66 34 11.0 14.0 0.00 0.00 0.00 80 1012.4
20260508015905 66 15 10.0 14.0 0.00 0.00 0.00 79 1012.9
20260508014905 67 15 8.0 13.0 0.00 0.00 0.00 79 1012.9
20260508014405 66 16 10.0 13.0 0.00 0.00 0.00 80 1012.8
20260508013405 66 29 10.0 13.0 0.00 0.00 0.00 80 1012.5
20260508011905 66 17 7.0 13.0 0.00 0.00 0.00 80 1013.2
20260508010905 67 22 13.0 17.0 0.00 0.00 0.00 80 1013.5
20260508005405 67 3 13.0 18.0 0.00 0.00 0.00 79 1014.1
20260508004906 68 11 13.0 17.0 0.00 0.00 0.00 79 1014.2
20260508004405 68 9 13.0 16.0 0.00 0.00 0.00 78 1014.4
20260508002405 68 0 12.0 15.0 0.00 0.00 0.00 77 1014.4
20260508001905 68 8 11.0 20.0 0.00 0.00 0.00 79 1014.4
20260508000905 67 5 15.0 23.0 0.00 0.00 0.00 78 1014.8
20260508000405 67 13 15.0 20.0 0.00 0.00 0.00 79 1015.1
20260507235405 67 14 13.0 21.0 0.00 0.00 0.00 81 1015.0
20260507234904 67 31 7.0 10.0 0.00 0.00 0.00 83 1015.1
20260507233405 67 41 6.0 12.0 0.00 0.00 0.00 83 1015.5
20260507232904 66 42 9.0 13.0 0.00 0.00 0.00 83 1015.5
20260507232404 66 48 7.0 12.0 0.00 0.00 0.00 83 1015.5
20260507231905 66 41 10.0 12.0 0.00 0.00 0.00 83 1015.6
20260507224904 67 25 13.0 18.0 0.00 0.00 0.00 80 1015.9
20260507223904 67 30 10.0 21.0 0.00 0.00 0.00 83 1015.9
20260507223405 67 22 12.0 16.0 0.00 0.00 0.00 86 1015.9
20260507221405 65 30 6.0 7.0 0.00 0.00 0.00 91 1016.3
20260507220905 65 39 4.0 7.0 0.00 0.00 0.00 93 1016.1
20260507214905 61 38 3.0 5.0 0.00 0.00 0.00 94 1016.4
20260507213904 60 29 3.0 5.0 0.00 0.00 0.00 95 1016.6
20260507210405 58 329 0.0 1.0 0.00 0.00 0.00 95 1016.6
20260507205404 57 328 0.0 1.0 0.00 0.00 0.00 95 1016.8
20260507204905 57 328 0.0 1.0 0.00 0.00 0.00 95 1016.9
20260507201405 54 329 1.0 1.0 0.00 0.00 0.00 94 1016.8
20260507200406 53 329 1.0 3.0 0.00 0.00 0.00 94 1017.0
20260507195906 54 56 0.0 2.0 0.00 0.00 0.00 95 1016.7
20260507195407 55 56 2.0 3.0 0.00 0.00 0.00 95 1016.6
20260507190906 54 63 3.0 5.0 0.00 0.00 0.00 94 1016.8
20260507190407 55 63 3.0 3.0 0.00 0.00 0.00 94 1016.8
20260507185905 56 63 3.0 3.0 0.00 0.00 0.00 94 1016.9
20260507184906 56 62 2.0 3.0 0.00 0.00 0.00 94 1016.9
20260507184406 55 61 1.0 3.0 0.00 0.00 0.00 94 1016.9
20260507183905 55 65 2.0 3.0 0.00 0.00 0.00 94 1017.1
20260507183406 55 72 4.0 6.0 0.00 0.00 0.00 94 1017.0
20260507182407 56 89 5.0 5.0 0.00 0.00 0.00 94 1017.0
20260507180906 56 88 2.0 3.0 0.00 0.00 0.00 94 1017.0
20260507175905 56 86 2.0 3.0 0.00 0.00 0.00 94 1017.1
20260507175406 56 86 2.0 3.0 0.00 0.00 0.00 94 1017.1
20260507174907 56 86 3.0 3.0 0.00 0.00 0.00 94 1017.1
20260507173406 55 76 3.0 5.0 0.00 0.00 0.00 94 1017.2
20260507172906 55 71 4.0 5.0 0.00 0.00 0.00 94 1017.2
20260507171906 55 64 5.0 6.0 0.00 0.00 0.00 93 1017.2
20260507170906 56 57 6.0 7.0 0.00 0.00 0.00 94 1017.4
20260507170406 56 66 6.0 9.0 0.00 0.00 0.00 94 1017.5
20260507164907 56 70 4.0 6.0 0.00 0.00 0.00 93 1017.6
20260507163906 57 77 3.0 3.0 0.00 0.00 0.00 94 1017.7
20260507162906 56 77 1.0 3.0 0.00 0.00 0.00 94 1017.7
20260507160906 57 66 1.0 2.0 0.00 0.00 0.00 93 1017.7
20260507160405 57 66 2.0 3.0 0.00 0.00 0.00 93 1017.8
20260507153906 58 71 8.0 10.0 0.00 0.00 0.00 93 1017.9
20260507152905 58 68 7.0 9.0 0.00 0.00 0.00 93 1018.1
20260507152406 57 64 6.0 9.0 0.00 0.00 0.00 94 1018.2
20260507151907 57 62 7.0 10.0 0.00 0.00 0.00 93 1018.3
20260507151406 57 62 7.0 9.0 0.00 0.00 0.00 93 1018.4
20260507150406 56 69 6.0 7.0 0.00 0.00 0.00 93 1018.6
20260507143906 56 42 3.0 3.0 0.00 0.00 0.00 92 1019.1
20260507141906 56 44 5.0 6.0 0.00 0.00 0.00 92 1019.3
20260507141406 56 45 5.0 7.0 0.00 0.00 0.00 92 1019.3
20260507140406 57 63 5.0 6.0 0.00 0.00 0.00 92 1019.3
20260507135906 56 64 4.0 6.0 0.00 0.00 0.00 92 1019.4
20260507134906 57 24 1.0 1.0 0.00 0.00 0.00 92 1019.6
20260507134406 57 24 1.0 2.0 0.00 0.00 0.00 92 1019.6
20260507132407 57 24 1.0 2.0 0.00 0.00 0.00 90 1019.8
20260507131906 57 24 0.0 1.0 0.00 0.00 0.00 90 1019.7
20260507131406 58 24 1.0 3.0 0.00 0.00 0.00 90 1019.7
20260507130406 58 45 5.0 6.0 0.00 0.00 0.00 91 1019.7
20260507125906 59 45 4.0 9.0 0.00 0.00 0.00 91 1019.7
20260507124905 58 54 5.0 7.0 0.00 0.00 0.00 90 1019.8
20260507123406 59 48 5.0 7.0 0.00 0.00 0.00 90 1020.0
20260507122906 59 46 5.0 5.0 0.00 0.00 0.00 90 1020.0
20260507121906 59 55 5.0 6.0 0.00 0.00 0.00 89 1020.2
20260507121406 59 54 4.0 7.0 0.00 0.00 0.00 89 1020.2
20260507120406 59 47 5.0 9.0 0.00 0.00 0.00 90 1020.3
20260507115905 59 50 6.0 8.0 0.00 0.00 0.00 89 1020.3
20260507113906 59 57 7.0 10.0 0.00 0.00 0.00 90 1020.5
20260507112906 58 57 6.0 7.0 0.00 0.00 0.00 90 1020.7
20260507111906 59 65 5.0 6.0 0.00 0.00 0.00 89 1020.8
20260507110906 59 65 5.0 6.0 0.00 0.00 0.00 90 1020.8
20260507110406 59 22 2.0 3.0 0.00 0.00 0.00 90 1020.9
20260507105905 59 311 0.0 0.0 0.00 0.00 0.00 90 1021.0
20260507105406 58 302 0.0 0.0 0.00 0.00 0.00 90 1021.2
20260507103406 58 302 0.0 0.0 0.00 0.00 0.00 90 1021.2
20260507102905 58 302 0.0 0.0 0.00 0.00 0.00 89 1021.3
20260507101905 58 302 0.0 0.0 0.00 0.00 0.00 89 1021.2
20260507101405 58 302 0.0 0.0 0.00 0.00 0.00 89 1021.2
20260507095905 59 301 2.0 5.0 0.00 0.00 0.00 87 1021.2
20260507094905 60 78 5.0 6.0 0.00 0.00 0.00 87 1020.9
20260507093905 60 85 5.0 7.0 0.00 0.00 0.00 86 1020.8
20260507093405 60 85 6.0 9.0 0.00 0.00 0.00 86 1020.8
20260507092405 60 76 6.0 10.0 0.00 0.00 0.00 86 1020.7
20260507090904 60 69 9.0 12.0 0.00 0.00 0.00 87 1020.4
20260507090406 60 73 10.0 12.0 0.00 0.00 0.00 87 1020.4
20260507085905 60 71 9.0 13.0 0.00 0.00 0.00 87 1020.4
20260507085405 60 68 10.0 14.0 0.00 0.00 0.00 87 1020.5
20260507084906 60 64 10.0 15.0 0.00 0.00 0.00 87 1020.6
20260507083905 60 63 10.0 13.0 0.00 0.00 0.00 87 1020.6
20260507083406 60 64 9.0 13.0 0.00 0.00 0.00 87 1020.7
20260507082905 60 61 8.0 12.0 0.00 0.00 0.00 87 1020.8
20260507081906 61 64 9.0 12.0 0.00 0.00 0.00 87 1020.8
20260507081406 61 59 11.0 13.0 0.00 0.00 0.00 87 1020.8
20260507080905 61 53 10.0 14.0 0.00 0.00 0.00 87 1020.9
20260507080405 61 51 9.0 12.0 0.00 0.00 0.00 88 1021.1
20260507075905 61 43 9.0 12.0 0.00 0.00 0.00 88 1021.2
20260507075405 60 44 9.0 12.0 0.00 0.00 0.00 88 1021.2
20260507074406 60 43 9.0 12.0 0.00 0.00 0.00 89 1021.3
20260507073406 59 34 7.0 10.0 0.00 0.00 0.00 90 1021.3
20260507072906 59 37 8.0 10.0 0.00 0.00 0.00 89 1021.2
20260507072405 59 35 8.0 10.0 0.00 0.00 0.00 89 1021.2
20260507071907 59 44 7.0 10.0 0.00 0.00 0.00 89 1021.2
20260507071406 59 45 7.0 10.0 0.00 0.00 0.00 89 1021.2
20260507070406 58 47 7.0 12.0 0.00 0.00 0.00 89 1021.1
20260507065905 58 38 6.0 9.0 0.00 0.00 0.00 89 1021.2
20260507065405 58 31 5.0 6.0 0.00 0.00 0.00 88 1021.1
20260507062904 59 45 5.0 6.0 0.00 0.00 0.00 86 1021.1
20260507061905 60 27 5.0 6.0 0.00 0.00 0.00 86 1021.1
20260507061406 61 28 6.0 7.0 0.00 0.00 0.00 86 1020.9
20260507055905 61 30 6.0 7.0 0.00 0.00 0.00 83 1020.9
20260507054905 62 36 7.0 9.0 0.00 0.00 0.00 82 1020.8
20260507053905 64 32 7.0 10.0 0.00 0.00 0.00 80 1020.8
20260507051405 66 355 8.0 12.0 0.00 0.00 0.00 77 1021.2
20260507045906 66 350 9.0 12.0 0.00 0.00 0.00 75 1021.3
20260507045405 67 3 7.0 12.0 0.00 0.00 0.00 74 1021.2
20260507043405 68 8 9.0 15.0 0.00 0.00 0.00 72 1021.3
20260507041905 70 8 7.0 12.0 0.00 0.00 0.00 69 1021.4
20260507040405 71 0 9.0 12.0 0.00 0.00 0.00 72 1021.3